Printer-friendly version

IAU Minor Planet Center

Minor Planet Center

MPEC 2005-L38 : 2005 LW7

The following Minor Planet Electronic Circular may be linked-to from your own Web pages, but must not otherwise be redistributed electronically.


Read MPEC 2005-L37 Read MPEC 2005-L39


M.P.E.C. 2005-L38                                Issued 2005 June 7, 21:22 UT

     The Minor Planet Electronic Circulars contain information on unusual
         minor planets and routine data on comets.  They are published
   on behalf of Commission 20 of the International Astronomical Union by the
          Minor Planet Center, Smithsonian Astrophysical Observatory,
                          Cambridge, MA 02138, U.S.A.

                  Supported in part by the Brinson Foundation
             Prepared using the Tamkin Foundation Computer Network

                              MPC@CFA.HARVARD.EDU
          URL http://cfa-www.harvard.edu/iau/mpc.html  ISSN 1523-6714

                                   2005 LW7

Observations:
     K05L07W* C2005 06 06.59409 20 02 40.59 -32 52 25.0          19.2 R EL038E12
     K05L07W  C2005 06 06.60321 20 02 41.43 -32 52 25.8          19.3 R EL038E12
     K05L07W  C2005 06 06.61232 20 02 42.32 -32 52 26.9          19.4 R EL038E12
     K05L07W  C2005 06 06.62144 20 02 43.16 -32 52 27.0          19.3 R EL038E12
     K05L07W  C2005 06 06.69078 20 02 49.89 -32 52 33.6          19   R EL038E12
     K05L07W  C2005 06 06.69461 20 02 50.27 -32 52 34.2          19   R EL038E12
     K05L07W  C2005 06 06.75889 20 02 56.28 -32 52 38.1          20   R EL038E12
     K05L07W  C2005 06 06.76251 20 02 56.54 -32 52 38.0          20   R EL038E12
     K05L07W  C2005 06 07.10489 20 03 32.89 -32 53 03.4          18.6 R EL038I77
     K05L07W  C2005 06 07.11021 20 03 33.36 -32 53 03.8          18.8 R EL038I77
     K05L07W  C2005 06 07.11764 20 03 33.93 -32 53 05.5          18.9 R EL038I77
     K05L07W  C2005 06 07.64118 20 04 26.63 -32 53 38.9          18.9 R EL038E12
     K05L07W  C2005 06 07.65363 20 04 27.76 -32 53 39.4          18.8 R EL038E12
     K05L07W  C2005 06 07.66618 20 04 28.98 -32 53 41.3          19.3 R EL038E12
     K05L07W  C2005 06 07.67875 20 04 30.13 -32 53 42.3          19.4 R EL038E12

Observer details:
E12 Siding Spring Survey.  Observer G. J. Garradd.  Measurers E. C. Beshore,
    C. M. Casey, E. J. Christensen, G. J. Garradd, A. D. Grauer, R. E. Hill,
    S. M. Larson, R. H. McNaught.  0.5-m Uppsala Schmidt + CCD.
I77 CEAMIG-REA Observatory, Belo Horizonte.  Observers C. Jacques, E. Pimentel.
    Measurer C. Jacques.  0.30-m f/3.0 Schmidt-Cassegrain + CCD.

Orbital elements:
2005 LW7
Epoch 2005 May 30.0 TT = JDT 2453520.5                  MPC
M 336.09224              (2000.0)            P               Q
n   0.31590881     Peri.  337.12757     +0.75136459     +0.65941333
a   2.1351492      Node   341.54777     -0.59256400     +0.65754866
e   0.3917894      Incl.    4.53139     -0.29037762     +0.36442258
P   3.12           H   19.0           G   0.15
From 15 observations 2005 June 6-7.

Ephemeris:
2005 LW7                 a,e,i = 2.14, 0.39, 5                   q = 1.2986
Date    TT    R. A. (2000) Decl.     Delta      r     Elong.  Phase     V
2005 05 30    19 49.23   -32 41.2    0.573    1.472   134.3    29.5    19.9
2005 06 09    20 06.70   -32 55.1    0.500    1.433   139.7    27.2    19.5
2005 06 19    20 22.21   -32 59.4    0.437    1.398   145.4    24.4    19.1
2005 06 29    20 35.31   -32 48.2    0.385    1.367   151.2    21.0    18.6
2005 07 09    20 45.45   -32 13.5    0.344    1.341   157.3    17.0    18.2
2005 07 19    20 52.66   -31 05.3    0.315    1.321   163.3    12.8    17.9
2005 07 29    20 57.53   -29 15.6    0.297    1.307   168.1     9.2    17.6
2005 08 08    21 01.15   -26 43.9    0.290    1.300   169.2     8.4    17.5
2005 08 18    21 05.25   -23 38.4    0.295    1.299   165.2    11.5    17.6
2005 08 28    21 11.12   -20 15.8    0.311    1.306   159.1    16.0    17.9
2005 09 07    21 19.43   -16 53.4    0.340    1.319   152.6    20.6    18.3
2005 09 17    21 30.39   -13 42.7    0.380    1.338   146.4    24.6    18.7
2005 09 27    21 43.63   -10 48.7    0.431    1.363   140.5    27.9    19.1
2005 10 07    21 58.67   -08 11.3    0.494    1.393   135.0    30.5    19.5
2005 10 17    22 15.14   -05 47.2    0.568    1.428   129.8    32.4    19.9
2005 10 27    22 32.56   -03 33.2    0.652    1.467   124.7    33.8    20.3
2005 11 06    22 50.67   -01 26.2    0.748    1.509   119.7    34.8    20.7
2005 11 16    23 09.26   +00 36.6    0.853    1.553   114.8    35.3    21.1
2005 11 26    23 28.15   +02 36.3    0.967    1.600   109.9    35.5    21.4
2005 12 06    23 47.26   +04 34.0    1.091    1.648   104.9    35.3    21.7
2005 12 16    00 06.52   +06 29.9    1.222    1.697   100.0    34.8    22.0

Timothy B. Spahr             (C) Copyright 2005 MPC           M.P.E.C. 2005-L38

Read MPEC 2005-L37 Read MPEC 2005-L39


Our Web policy. Index to the CBAT/MPC/ICQ pages.


Valid HTML 4.01!